Regional Weather Roundup
Issued by NWS

Home | Current Version | Previous Version | Text Only | Print | Product List | Glossary Off
Versions: 1 2 3 4 5 6 7 8 9 10 11 12 13 14 15 16 17 18 19 20 21 22 23 24 25 26 27 28 29 30 31 32 33 34 35 36 37 38 39 40 41 42 43 44 45 46 47 48 49 50

000
ASUS45 KTFX 291219
RWRMT
MONTANA REGIONAL WEATHER ROUNDUP
NATIONAL WEATHER SERVICE GREAT FALLS MT
600 AM MDT SAT AUG 29 2015

NOTE: "FAIR" INDICATES FEW OR NO CLOUDS BELOW 12000 FEET WITH NO
SIGNIFICANT WEATHER AND/OR OBSTRUCTIONS TO VISIBILITY.

MTZ001>007-043-291300-
WEST OF THE DIVIDE

CITY           SKY/WX    TMP DP  RH WIND       PRES   REMARKS
KALISPELL      CLOUDY    51  44  77 CALM      29.86F
MISSOULA       CLOUDY    59  48  67 E3        29.89F HAZE
BUTTE          CLOUDY    56  43  61 CALM      30.10S HAZE
MULLAN PASS    CLOUDY    58  36  43 SE9       29.95F HAZE
DEER LODGE       N/A     63  46  55 S6        30.04F
EUREKA           N/A     55  43  62 E5        29.84F
HAMILTON         N/A     59  48  67 SE5       29.89F
LIBBY            N/A     54  43  66 CALM      29.83F
PLAINS           N/A     53  43  69 CALM      29.84F
RONAN            N/A     56  47  71 CALM      29.90F
$$

MTZ008-052>055-291300-
SOUTHWEST MONTANA

CITY           SKY/WX    TMP DP  RH WIND       PRES   REMARKS
BOZEMAN        MOCLDY    56  47  71 CALM      30.04F HAZE
DILLON         CLOUDY    63  39  41 S7        30.08S HAZE
W YELLOWSTONE  PTCLDY    43  34  70 CALM      30.24R
THREE FORKS      N/A     57  57 100 CALM      30.02F
TWIN BRIDGES     N/A     61  40  45 NE5       30.06R
$$

MTZ009-010-012-014-046-048-049-054-291300-
EAST SLOPES AND CENTRAL MONTANA

CITY           SKY/WX    TMP DP  RH WIND       PRES   REMARKS
CUT BANK       CLOUDY    54  38  54 N5        29.91F HAZE
GREAT FALLS    MOCLDY    70  39  32 SE3       29.93F HAZE
MALMSTROM AFB  CLOUDY    69  40  34 S6        29.93F
HELENA         CLOUDY    66  43  43 W5        29.98R SMOKE
CONRAD           N/A     60  45  57 S3        29.95S
$$

MTZ011-013-016-021-045-047-050-051-291300-
NORTH CENTRAL MONTANA

CITY           SKY/WX    TMP DP  RH WIND       PRES   REMARKS
HAVRE          CLOUDY    63  44  50 MISG      29.88S HAZE
LEWISTOWN      MOCLDY    62  45  53 SE6       30.02S HAZE
N BAR RANCH      N/A     61  43  51 SW7       30.06R
CHINOOK          N/A     63  46  55 W3        29.87S
FORT BENTON      N/A     68  45  42 N3        29.90F
$$

MTZ017>020-022>027-061-062-291300-
NORTHEAST MONTANA

CITY           SKY/WX    TMP DP  RH WIND       PRES   REMARKS
GLASGOW        MOCLDY    65  45  48 E7        29.88S HAZE
JORDAN           N/A     63  42  46 W3        29.92R
SIDNEY         PTCLDY    54  46  76 S9        29.91S
WOLF POINT     CLOUDY    58  46  64 NE3       29.89R HAZE
MALTA            N/A     63  48  57 CALM      29.85R
PLENTYWOOD       N/A     63  45  51 S3        29.89S
POPLAR           N/A     57  45  62 E5        29.90F
$$

MTZ028>42-056>058-291300-
SOUTHCENTRAL AND SOUTHEAST MONTANA

CITY           SKY/WX    TMP DP  RH WIND       PRES   REMARKS
BAKER          CLEAR     53  44  71 E6        29.99S HAZE
BILLINGS       PTCLDY    64  42  44 S5        30.00R
LIVINGSTON     PTCLDY    53  39  59 W3        30.06S HAZE
MILES CITY     CLEAR     62  44  51 SE8       29.93S HAZE
FORSYTH          N/A     66  41  39 CALM      29.95R
LAUREL           N/A     58  42  55 CALM      29.98S
ROUNDUP          N/A     68  38  33 CALM      29.91S
$$

REGIONAL REPORTS...DAKOTAS

CITY           SKY/WX    TMP DP  RH WIND       PRES   REMARKS
WILLISTON      MOCLDY    56  51  84 SW3       29.91S HAZE
MINOT          CLOUDY    61  52  72 SW12      29.90R HAZE
DICKINSON      CLOUDY    57  44  62 S6        29.96R HAZE
BEACH          CLOUDY    50  46  87 S7        29.98S FOG
CROSBY           N/A     59  54  82 S9        29.89S HAZE
BISMARCK       CLOUDY    58  57  97 W5        29.95R FOG
GRAND FORKS      N/A     62  61  96 S6        29.90R FOG
FARGO          CLEAR     63  59  87 S9        29.95R
BUFFALO SD       N/A     63  44  50 CALM      29.96S
RAPID CITY     PTCLDY    60  53  77 CALM      30.05S
$$

REGIONAL REPORTS...WYOMING/IDAHO/WASHINGTON

CITY           SKY/WX    TMP DP  RH WIND       PRES   REMARKS
GILLETTE       CLEAR     61  41  47 CALM      30.09S
SHERIDAN       CLEAR     51  43  74 CALM      30.03S
BUFFALO WY     CLEAR     75  32  20 CALM      30.11F
CODY           PTCLDY    63  37  39 SW8       30.11R
YELLOWSTONE LA   N/A     41  37  86 CALM      30.35S
IDAHO FALLS    MOCLDY    61  48  62 N10       30.07R
SALMON         CLOUDY    57  46  67 S5        29.96F
BOISE          CLOUDY    78  41  26 SE14      29.80S
SPOKANE        CLOUDY    65  45  48 NE9       29.67F
$$

REGIONAL REPORTS...ALBERTA

CITY           SKY/WX    TMP DP  RH WIND       PRES   REMARKS
EDMONTON       CLEAR     55  45  67 W5        29.76R
CALGARY        PTCLDY    59  45  58 S6        29.83S
LETHBRIDGE     MOCLDY    54  43  66 W2        29.87S
MEDICINE HAT   CLEAR     55  45  67 W7        29.81F
WATERTON GATE    N/A     43  39  87 SW1         N/A
CARDSTON         N/A     55  39  54 SE3         N/A
MILK RIVER       N/A     57  41  54 W5          N/A
ONEFOUR          N/A     61  37  41 E6          N/A
$$

REGIONAL REPORTS...SASKATCHEWAN

CITY           SKY/WX    TMP DP  RH WIND       PRES   REMARKS
SWIFT CURRENT  CLEAR     59  46  63 SW9       29.85R HAZE
REGINA         CLOUDY    63  52  67 SE7       29.82S SMOKE
SASKATOON      MOCLDY    63  50  63 SW13      29.71S SMOKE
CYPRESS HILLS    N/A     61  36  39 SW6         N/A
VAL MARIE        N/A     63  45  51 SW3         N/A
ROCKGLEN         N/A     64  45  48 SW10        N/A
ASSINIBOIA       N/A     55  48  76 W8          N/A
$$



USA.gov is the U.S. government's official web portal to all federal, state and local government web resources and services.